Weather History for Saint Simons Island, GA

Change the Weather History Date:

Tuesday, April 16, 2013

  Actual Average Record
Temperature  
Mean Temperature 71 °F 66 °F  
Max Temperature 76 °F 75 °F 92 °F (1972)
Min Temperature 65 °F 58 °F 39 °F (1950)
Degree Days  
Heating Degree Days 0 2  
Month to date heating degree days 21 41  
Since 1 July heating degree days 1249 1469  
Cooling Degree Days 6 3  
Month to date cooling degree days 54 40  
Year to date cooling degree days 93 80  
Growing Degree Days 20 (Base 50)    
Moisture  
Dew Point 64 °F    
Average Humidity 85    
Maximum Humidity 100    
Minimum Humidity 69    
Precipitation  
Precipitation 0.00 in 0.08 in 0.98 in (1956)
Month to date precipitation 1.15 1.49  
Year to date precipitation 7.37 12.06  
Snow  
Snow 0.00 in - 0.00 in ()
Month to date snowfall 0.0  
Since 1 July snowfall 0.0  
Snow Depth 0.00 in    
Sea Level Pressure  
Sea Level Pressure 30.17 in    
Wind  
Wind Speed 9 mph (ENE)    
Max Wind Speed 17 mph    
Max Gust Speed 23 mph    
Visibility 9 miles    
Events      
T = Trace of Precipitation, MM = Missing Value Source: NWS Daily Summary

Daily Weather History Graph

Daily Weather History Graph

Search for Another Location

Airport:

Trip Planner

Search our weather history database for the weather conditions in past years. The results will help you decide how hot, cold, wet, or windy it might be!

Date:

Astronomy

Apr. 16, 2013 Rise Set
Actual Time 6:56 AM EDT 7:54 PM EDT
Civil Twilight 6:31 AM EDT 8:19 PM EDT
Nautical Twilight 6:01 AM EDT 8:49 PM EDT
Astronomical Twilight 5:31 AM EDT 9:19 PM EDT
Moon 11:23 AM EDT (4/16) 12:40 AM EDT (4/16)
Length of Visible Light 13h 48m
Length of Day
12h 58m
Waxing Crescent, 33% of the Moon is Illuminated
Apr 16
Waxing Crescent
Apr 18
First Quarter
Apr 25
Full
May 2
Last Quarter
May 9
New

Hourly Weather History & Observations

Time (EDT) Temp. Dew Point Humidity Pressure Visibility Wind Dir Wind Speed Gust Speed Precip Events Conditions
12:02 AM 66.2 °F 62.6 °F 88% 30.14 in 10.0 mi NE 4.6 mph - N/A   Scattered Clouds
12:53 AM 66.0 °F 63.0 °F 90% 30.14 in 10.0 mi NE 6.9 mph - N/A   Clear
1:53 AM 66.0 °F 64.0 °F 93% 30.13 in 9.0 mi ENE 6.9 mph - N/A   Clear
2:30 AM 66.2 °F 64.4 °F 94% 30.12 in 8.0 mi NE 8.1 mph - N/A   Mostly Cloudy
2:53 AM 66.0 °F 64.0 °F 93% 30.12 in 8.0 mi NE 5.8 mph - N/A   Mostly Cloudy
3:05 AM 66.2 °F 64.4 °F 94% 30.12 in 7.0 mi NE 5.8 mph - N/A   Mostly Cloudy
3:50 AM 64.4 °F 64.4 °F 100% 30.12 in 7.0 mi ENE 4.6 mph - N/A   Overcast
3:53 AM 64.9 °F 64.0 °F 97% 30.12 in 7.0 mi NE 3.5 mph - N/A   Overcast
4:29 AM 66.2 °F 64.4 °F 94% 30.13 in 7.0 mi NE 5.8 mph - N/A   Partly Cloudy
4:53 AM 66.0 °F 64.9 °F 96% 30.13 in 9.0 mi NE 9.2 mph - N/A   Scattered Clouds
5:01 AM 66.2 °F 64.4 °F 94% 30.13 in 9.0 mi NE 8.1 mph - N/A   Mostly Cloudy
5:29 AM 66.2 °F 64.4 °F 94% 30.13 in 10.0 mi NE 8.1 mph - N/A   Partly Cloudy
5:53 AM 66.0 °F 64.0 °F 93% 30.14 in 9.0 mi NE 6.9 mph - N/A   Partly Cloudy
6:36 AM 66.2 °F 64.4 °F 94% 30.15 in 10.0 mi NE 6.9 mph - N/A   Mostly Cloudy
6:53 AM 66.9 °F 64.0 °F 90% 30.16 in 10.0 mi NE 8.1 mph - N/A   Overcast
7:18 AM 66.2 °F 64.4 °F 94% 30.16 in 10.0 mi ENE 8.1 mph - N/A   Mostly Cloudy
7:28 AM 66.2 °F 64.4 °F 94% 30.17 in 10.0 mi ENE 6.9 mph - N/A   Mostly Cloudy
7:53 AM 68.0 °F 64.4 °F 88% 30.18 in 10.0 mi ENE 6.9 mph - N/A   Overcast
8:38 AM 69.8 °F 64.4 °F 83% 30.19 in 10.0 mi NE 8.1 mph - N/A   Overcast
8:53 AM 69.1 °F 64.9 °F 87% 30.20 in 10.0 mi ENE 10.4 mph - N/A   Mostly Cloudy
9:53 AM 71.1 °F 64.9 °F 81% 30.21 in 10.0 mi ENE 12.7 mph - N/A   Mostly Cloudy
10:53 AM 71.1 °F 64.9 °F 81% 30.22 in 10.0 mi ENE 13.8 mph - N/A   Mostly Cloudy
11:53 AM 73.0 °F 64.9 °F 76% 30.23 in 10.0 mi ENE 13.8 mph 19.6 mph N/A   Clear
12:53 PM 73.9 °F 66.0 °F 76% 30.22 in 10.0 mi ENE 13.8 mph 21.9 mph N/A   Clear
1:53 PM 75.0 °F 64.9 °F 71% 30.22 in 10.0 mi NE 12.7 mph 19.6 mph N/A   Scattered Clouds
2:53 PM 75.0 °F 66.0 °F 73% 30.21 in 10.0 mi ENE 12.7 mph - N/A   Clear
3:53 PM 75.0 °F 66.0 °F 73% 30.20 in 10.0 mi ENE 13.8 mph - N/A   Clear
4:53 PM 73.9 °F 64.9 °F 73% 30.20 in 10.0 mi ENE 13.8 mph - N/A   Clear
5:53 PM 72.0 °F 64.0 °F 76% 30.20 in 10.0 mi ENE 10.4 mph - N/A   Clear
6:53 PM 70.0 °F 64.0 °F 81% 30.20 in 10.0 mi ENE 11.5 mph - N/A   Clear
7:53 PM 69.1 °F 64.0 °F 84% 30.19 in 10.0 mi ENE 9.2 mph - N/A   Clear
8:53 PM 68.0 °F 64.0 °F 87% 30.21 in 10.0 mi ENE 6.9 mph - N/A   Clear
9:53 PM 68.0 °F 64.0 °F 87% 30.21 in 10.0 mi ENE 6.9 mph - N/A   Clear
10:53 PM 66.9 °F 64.0 °F 90% 30.21 in 10.0 mi ENE 5.8 mph - N/A   Clear
11:53 PM 66.0 °F 64.0 °F 93% 30.19 in 10.0 mi ENE 3.5 mph - N/A   Clear